Find Starlink 33748

NORAD ID: 63383 Int'l Des: 2025-063 Owner: SPXS Country: US Constellation: starlink operational
LEOCIRCULAR

現在のビュー

3D地球を読み込み中...

About Starlink 33748

Starlink 33748 (NORAD 63383) is a starlink constellation satellite (v2 mini) launched Mar 26, 2025 by SPXS of US. It operates in LEO, CIRCULAR orbit with a mass of 575.00 kg.

次回通過

Passes for default location (London). Set your location on the main map for personalized predictions.

高度履歴

Loading altitude history...

軌道要素

1 63383U 25063W 26263.63392801 .00029030 00000-0 86741-3 0 9993
2 63383 53.1529 234.9649 0001261 89.0680 271.0467 15.34385236 84490
Epoch: Sep 20, 2026 • Age: 20 hours

現在のステータス

高度 475.8 km
遠地点 / 近地点 N/A
速度 7.63 km/s
衛星直下点 -38.35°S, 24.82°E
打ち上げ日 Mar 26, 2025
運用期間 1.4 years
タイプ internet

技術仕様

分類 Payload
質量 575.00 kg
乾燥質量 530.00 kg
長さ 0.30 m
スパン 29.00 m
形状 ? Box + pan
製造者 SPXS
バスタイプ Starlink V2MO
フェーズステータス In Orbit
所有者/国 SPXS/US

Most Searched